Chicago Midway, IL

4:11 AM CST on January 18, 2018 (GMT -0600)
Chicago-Midway

Weather History for KMDW - April, 2014

Change the Weather History Date:

Tuesday, April 29, 2014

  Actual Average Record
Temperature  
Mean Temperature 59 °F 56 °F  
Max Temperature 67 °F 65 °F 89 °F (1942)
Min Temperature 50 °F 46 °F 31 °F (1958)
Degree Days  
Heating Degree Days 6 10  
Month to date heating degree days 432 439  
Since 1 July heating degree days 6631 5762  
Cooling Degree Days 0 1  
Month to date cooling degree days 5 11  
Year to date cooling degree days 5 12  
Growing Degree Days 8 (Base 50)    
Moisture  
Dew Point 49 °F    
Average Humidity 80    
Maximum Humidity 100    
Minimum Humidity 43    
Precipitation  
Precipitation 0.11 in 0.13 in 1.83 in (2017)
Month to date precipitation 3.13 3.52  
Year to date precipitation 6.71 10.24  
Sea Level Pressure  
Sea Level Pressure 29.54 in    
Wind  
Wind Speed 10 mph (South)    
Max Wind Speed 26 mph    
Max Gust Speed 34 mph    
Visibility 7 miles    
Events Rain , Thunderstorm    
T = Trace of Precipitation, MM = Missing Value Source: NWS Daily Summary

Daily Weather History Graph

Daily Weather History Graph

Search for Another Location

Airport or City:

Trip Planner

Search our weather history database for the weather conditions in past years. The results will help you decide how hot, cold, wet, or windy it might be!

Date:

Astronomy

Apr. 29, 2014 Rise Set
Actual Time 5:50 AM CDT 7:47 PM CDT
Civil Twilight 5:20 AM CDT 8:17 PM CDT
Nautical Twilight 4:43 AM CDT 8:54 PM CDT
Astronomical Twilight 4:03 AM CDT 9:34 PM CDT
Moon 6:08 AM CDT (4/29) 8:27 PM CDT (4/29)
Length of Visible Light 14h 57m
Length of Day
13h 57m
New Moon, 0% of the Moon is Illuminated
Apr 29
New Moon
May 6
First Quarter
May 14
Full
May 21
Last Quarter
May 28
New

Hourly Weather History & Observations

Time (CDT) Temp. Dew Point Humidity Pressure Visibility Wind Dir Wind Speed Gust Speed Precip Events Conditions
12:51 AM 50.0 °F 48.9 °F 96% 29.54 in 7.0 mi ESE 10.4 mph - 0.01 in   Overcast
1:51 AM 51.1 °F 48.9 °F 92% 29.54 in 5.0 mi ESE 6.9 mph - 0.01 in Rain Light Rain
2:51 AM 51.1 °F 50.0 °F 96% 29.49 in 4.0 mi East 8.1 mph - 0.03 in   Overcast
3:51 AM 51.1 °F 50.0 °F 96% 29.49 in 3.0 mi ESE 8.1 mph - N/A   Overcast
3:57 AM 51.8 °F 50.0 °F 94% 29.49 in 4.0 mi ESE 5.8 mph - N/A   Overcast
4:51 AM 51.1 °F 51.1 °F 100% 29.49 in 2.0 mi South 4.6 mph - N/A   Overcast
5:40 AM 51.1 °F 50.0 °F 96% 29.49 in 1.0 mi South 6.9 mph - N/A   Overcast
5:51 AM 51.1 °F 51.1 °F 100% 29.49 in 0.8 mi South 5.8 mph - N/A   Overcast
6:51 AM 51.1 °F 51.1 °F 100% 29.49 in 0.8 mi South 5.8 mph - N/A   Overcast
7:35 AM 52.0 °F 51.1 °F 97% 29.49 in 2.0 mi SE 8.1 mph - N/A   Overcast
7:47 AM 51.8 °F 51.8 °F 100% 29.50 in 3.0 mi South 5.8 mph - N/A   Overcast
7:48 AM 52.0 °F 52.0 °F 100% 29.50 in 3.0 mi SSE 4.6 mph - N/A   Overcast
7:51 AM 52.0 °F 52.0 °F 100% 29.50 in 3.0 mi SSE 4.6 mph - N/A   Overcast
8:03 AM 52.0 °F 51.1 °F 97% 29.50 in 4.0 mi SSE 6.9 mph - N/A   Overcast
8:51 AM 54.0 °F 52.0 °F 93% 29.50 in 6.0 mi SSE 6.9 mph - N/A   Mostly Cloudy
9:19 AM 55.9 °F 52.0 °F 87% 29.49 in 9.0 mi SE 8.1 mph - N/A   Scattered Clouds
9:51 AM 57.2 °F 51.8 °F 82% 29.48 in 10.0 mi SSE 4.6 mph - N/A   Mostly Cloudy
10:51 AM 64.9 °F 52.0 °F 63% 29.47 in 10.0 mi SSE 12.7 mph 20.7 mph N/A   Mostly Cloudy
11:51 AM 66.9 °F 51.1 °F 57% 29.45 in 10.0 mi South 19.6 mph 27.6 mph N/A   Overcast
12:51 PM 64.0 °F 48.0 °F 56% 29.48 in 10.0 mi South 17.3 mph 27.6 mph 0.00 in   Overcast
1:51 PM 60.1 °F 46.0 °F 60% 29.52 in 10.0 mi WSW 20.7 mph 31.1 mph 0.01 in   Overcast
2:51 PM 61.0 °F 43.0 °F 52% 29.55 in 10.0 mi SW 21.9 mph 27.6 mph N/A   Overcast
3:51 PM 62.1 °F 45.0 °F 53% 29.56 in 10.0 mi SW 13.8 mph 25.3 mph N/A   Overcast
4:51 PM 61.0 °F 45.0 °F 56% 29.57 in 10.0 mi SW 15.0 mph - N/A   Mostly Cloudy
5:51 PM 61.0 °F 46.0 °F 58% 29.60 in 10.0 mi West 11.5 mph 20.7 mph N/A   Overcast
6:51 PM 59.0 °F 46.9 °F 64% 29.62 in 10.0 mi West 10.4 mph - N/A   Overcast
7:12 PM 59.0 °F 46.9 °F 64% 29.63 in 10.0 mi West 8.1 mph - N/A Thunderstorm Thunderstorm
7:35 PM 57.2 °F 46.4 °F 67% 29.63 in 10.0 mi West 6.9 mph - N/A   Overcast
7:51 PM 57.9 °F 46.0 °F 65% 29.64 in 10.0 mi West 8.1 mph - N/A   Overcast
8:51 PM 53.6 °F 46.4 °F 77% 29.66 in 10.0 mi West 5.8 mph - N/A   Overcast
9:51 PM 54.0 °F 48.0 °F 80% 29.65 in 10.0 mi SSW 4.6 mph - N/A   Overcast
10:51 PM 54.0 °F 48.0 °F 80% 29.66 in 10.0 mi South 4.6 mph - N/A   Overcast